| time (UTC) | temp F | wind direction | speed MPH | gust MPH | rain 1hr in | rain 24hr in | rain mn in | humidity % | barometer mb |
| 20260507010851 | 49 | 277 | 0.0 | 0.0 | 0.04 | 1.46 | 0.01 | 93 | 1013.8 |
| 20260507010346 | 48 | 277 | 0.0 | 3.0 | 0.04 | 1.46 | 0.01 | 93 | 1013.8 |
| 20260507005821 | 48 | 277 | 1.0 | 3.0 | 0.04 | 1.50 | 0.01 | 93 | 1013.8 |
| 20260507005319 | 48 | 270 | 1.0 | 3.0 | 0.04 | 1.50 | 0.01 | 93 | 1013.7 |
| 20260507004835 | 48 | 286 | 0.0 | 2.0 | 0.04 | 1.50 | 0.01 | 93 | 1013.7 |
| 20260507004333 | 48 | 293 | 1.0 | 2.0 | 0.04 | 1.50 | 0.01 | 93 | 1013.7 |
| 20260507003828 | 48 | 273 | 0.0 | 2.0 | 0.04 | 1.50 | 0.01 | 93 | 1013.7 |
| 20260507003329 | 49 | 252 | 0.0 | 2.0 | 0.00 | 1.46 | 0.00 | 93 | 1013.7 |
| 20260507002823 | 49 | 252 | 1.0 | 3.0 | 0.00 | 1.46 | 0.00 | 93 | 1013.8 |
| 20260507002319 | 49 | 252 | 0.0 | 3.0 | 0.00 | 1.46 | 0.00 | 93 | 1013.7 |
| 20260507001834 | 49 | 252 | 0.0 | 2.0 | 0.00 | 1.46 | 0.00 | 93 | 1013.7 |
| 20260507001352 | 49 | 252 | 0.0 | 2.0 | 0.00 | 1.46 | 0.00 | 93 | 1013.7 |
| 20260507000826 | 49 | 252 | 1.0 | 3.0 | 0.00 | 1.46 | 0.00 | 93 | 1013.8 |
| 20260507000323 | 48 | 252 | 1.0 | 3.0 | 0.00 | 1.46 | 0.00 | 93 | 1013.7 |
| 20260506235818 | 49 | 252 | 2.0 | 3.0 | 0.00 | 1.46 | 0.00 | 93 | 1013.7 |
| 20260506235336 | 49 | 252 | 1.0 | 3.0 | 0.00 | 1.46 | 0.00 | 93 | 1013.7 |
| 20260506234853 | 49 | 280 | 0.0 | 2.0 | 0.00 | 1.46 | 0.00 | 93 | 1013.6 |
| 20260506234331 | 49 | 280 | 1.0 | 2.0 | 0.00 | 1.46 | 0.00 | 93 | 1013.6 |
| 20260506233824 | 49 | 280 | 0.0 | 2.0 | 0.00 | 1.46 | 0.00 | 93 | 1013.6 |
| 20260506233344 | 49 | 280 | 1.0 | 2.0 | 0.00 | 1.46 | 0.00 | 93 | 1013.5 |
| 20260506232816 | 49 | 269 | 1.0 | 2.0 | 0.00 | 1.46 | 0.00 | 93 | 1013.5 |
| 20260506232314 | 49 | 269 | 0.0 | 1.0 | 0.00 | 1.46 | 0.00 | 93 | 1013.7 |
| 20260506231852 | 49 | 269 | 0.0 | 1.0 | 0.00 | 1.46 | 0.00 | 93 | 1013.6 |
| 20260506231329 | 49 | 269 | 0.0 | 2.0 | 0.00 | 1.46 | 0.00 | 93 | 1013.6 |
| 20260506230823 | 49 | 269 | 0.0 | 2.0 | 0.00 | 1.46 | 0.00 | 93 | 1013.5 |
| 20260506230320 | 49 | 269 | 0.0 | 3.0 | 0.00 | 1.46 | 0.00 | 93 | 1013.5 |
| 20260506225815 | 49 | 243 | 1.0 | 3.0 | 0.00 | 1.46 | 0.00 | 93 | 1013.4 |
| 20260506225333 | 49 | 248 | 1.0 | 2.0 | 0.00 | 1.46 | 0.00 | 92 | 1013.5 |
| 20260506224827 | 49 | 248 | 0.0 | 4.0 | 0.00 | 1.46 | 0.00 | 92 | 1013.4 |
| 20260506224326 | 49 | 248 | 1.0 | 4.0 | 0.00 | 1.46 | 0.00 | 92 | 1013.4 |
| 20260506223841 | 49 | 286 | 0.0 | 6.0 | 0.00 | 1.46 | 0.00 | 92 | 1013.4 |
| 20260506223316 | 49 | 286 | 1.0 | 6.0 | 0.00 | 1.46 | 0.00 | 93 | 1013.4 |
| 20260506222831 | 49 | 272 | 1.0 | 3.0 | 0.00 | 1.46 | 0.00 | 93 | 1013.4 |
| 20260506222326 | 49 | 347 | 1.0 | 3.0 | 0.00 | 1.46 | 0.00 | 93 | 1013.4 |
| 20260506221821 | 49 | 287 | 0.0 | 3.0 | 0.00 | 1.46 | 0.00 | 93 | 1013.3 |
| 20260506221319 | 49 | 278 | 0.0 | 2.0 | 0.00 | 1.46 | 0.00 | 93 | 1013.3 |
| 20260506220816 | 49 | 263 | 0.0 | 3.0 | 0.00 | 1.46 | 0.00 | 93 | 1013.2 |
| 20260506220334 | 49 | 263 | 1.0 | 3.0 | 0.00 | 1.46 | 0.00 | 93 | 1013.3 |
| 20260506215828 | 49 | 303 | 2.0 | 3.0 | 0.00 | 1.46 | 0.29 | 93 | 1013.3 |
| 20260506215328 | 49 | 269 | 2.0 | 3.0 | 0.00 | 1.46 | 0.29 | 93 | 1013.2 |
| 20260506214823 | 49 | 237 | 0.0 | 3.0 | 0.00 | 1.46 | 0.29 | 93 | 1013.3 |
| 20260506214322 | 49 | 237 | 1.0 | 4.0 | 0.04 | 1.46 | 0.29 | 93 | 1013.2 |
| 20260506213819 | 49 | 265 | 2.0 | 4.0 | 0.04 | 1.46 | 0.29 | 93 | 1013.2 |
| 20260506213317 | 49 | 265 | 2.0 | 3.0 | 0.04 | 1.46 | 0.29 | 93 | 1013.2 |
| 20260506212832 | 49 | 296 | 0.0 | 3.0 | 0.04 | 1.46 | 0.29 | 93 | 1013.2 |
| 20260506212332 | 49 | 296 | 0.0 | 3.0 | 0.04 | 1.46 | 0.29 | 93 | 1013.2 |
| 20260506211828 | 49 | 296 | 0.0 | 3.0 | 0.04 | 1.46 | 0.29 | 93 | 1013.2 |
| 20260506211328 | 49 | 275 | 2.0 | 3.0 | 0.04 | 1.46 | 0.29 | 93 | 1013.2 |
| 20260506210845 | 49 | 300 | 0.0 | 2.0 | 0.04 | 1.46 | 0.29 | 92 | 1013.2 |
| 20260506210321 | 49 | 300 | 1.0 | 3.0 | 0.04 | 1.46 | 0.29 | 92 | 1013.1 |
| 20260506205839 | 49 | 301 | 1.0 | 3.0 | 0.04 | 1.46 | 0.29 | 92 | 1013.2 |
| 20260506205337 | 49 | 307 | 0.0 | 3.0 | 0.04 | 1.46 | 0.29 | 92 | 1013.1 |
| 20260506204849 | 49 | 307 | 1.0 | 5.0 | 0.04 | 1.46 | 0.29 | 92 | 1013.0 |
| 20260506204327 | 49 | 302 | 3.0 | 5.0 | 0.00 | 1.42 | 0.28 | 92 | 1013.0 |
| 20260506203822 | 49 | 298 | 2.0 | 4.0 | 0.00 | 1.42 | 0.28 | 92 | 1012.9 |
| 20260506203316 | 49 | 304 | 2.0 | 6.0 | 0.00 | 1.42 | 0.28 | 92 | 1012.9 |
| 20260506202855 | 49 | 313 | 2.0 | 6.0 | 0.00 | 1.42 | 0.28 | 92 | 1012.8 |
| 20260506202350 | 49 | 306 | 1.0 | 4.0 | 0.00 | 1.42 | 0.28 | 91 | 1012.9 |
| 20260506201822 | 49 | 290 | 1.0 | 5.0 | 0.00 | 1.42 | 0.28 | 91 | 1012.7 |
| 20260506201319 | 50 | 301 | 2.0 | 4.0 | 0.00 | 1.42 | 0.28 | 91 | 1012.7 |
| 20260506200833 | 50 | 304 | 2.0 | 3.0 | 0.00 | 1.42 | 0.28 | 91 | 1012.7 |
| 20260506200329 | 50 | 304 | 2.0 | 3.0 | 0.00 | 1.42 | 0.28 | 91 | 1012.6 |
| 20260506195823 | 50 | 304 | 1.0 | 3.0 | 0.00 | 1.42 | 0.28 | 91 | 1012.6 |
| 20260506195321 | 50 | 310 | 1.0 | 2.0 | 0.00 | 1.42 | 0.28 | 91 | 1012.6 |
| 20260506194833 | 50 | 310 | 1.0 | 2.0 | 0.00 | 1.42 | 0.28 | 91 | 1012.5 |
| 20260506194330 | 50 | 310 | 1.0 | 2.0 | 0.00 | 1.42 | 0.28 | 91 | 1012.4 |
| 20260506193824 | 50 | 310 | 1.0 | 3.0 | 0.00 | 1.42 | 0.28 | 90 | 1012.3 |
| 20260506193322 | 50 | 312 | 2.0 | 3.0 | 0.00 | 1.42 | 0.28 | 90 | 1012.3 |
| 20260506192815 | 50 | 304 | 1.0 | 3.0 | 0.00 | 1.42 | 0.28 | 90 | 1012.2 |
| 20260506192330 | 50 | 306 | 1.0 | 5.0 | 0.00 | 1.42 | 0.28 | 90 | 1012.2 |
| 20260506191822 | 50 | 311 | 2.0 | 5.0 | 0.00 | 1.42 | 0.28 | 90 | 1012.0 |
| 20260506191315 | 50 | 306 | 3.0 | 5.0 | 0.00 | 1.42 | 0.28 | 90 | 1011.9 |
| 20260506190829 | 50 | 325 | 3.0 | 5.0 | 0.00 | 1.42 | 0.28 | 90 | 1011.8 |
| 20260506190324 | 50 | 328 | 4.0 | 5.0 | 0.00 | 1.42 | 0.28 | 89 | 1011.8 |
| 20260506185819 | 50 | 318 | 3.0 | 6.0 | 0.00 | 1.50 | 0.28 | 89 | 1011.7 |
| 20260506185317 | 50 | 322 | 3.0 | 9.0 | 0.00 | 1.50 | 0.28 | 89 | 1011.6 |
| 20260506184833 | 50 | 317 | 5.0 | 8.0 | 0.00 | 1.50 | 0.28 | 89 | 1011.6 |
| 20260506184331 | 51 | 313 | 5.0 | 8.0 | 0.00 | 1.50 | 0.28 | 89 | 1011.6 |
| 20260506183827 | 51 | 313 | 3.0 | 8.0 | 0.00 | 1.50 | 0.28 | 89 | 1011.6 |
| 20260506183325 | 51 | 317 | 4.0 | 8.0 | 0.00 | 1.50 | 0.28 | 89 | 1011.5 |
| 20260506182849 | 51 | 326 | 5.0 | 9.0 | 0.00 | 1.50 | 0.28 | 89 | 1011.5 |
| 20260506182325 | 51 | 327 | 5.0 | 9.0 | 0.00 | 1.50 | 0.28 | 89 | 1011.6 |
| 20260506181841 | 51 | 336 | 4.0 | 9.0 | 0.00 | 1.50 | 0.28 | 89 | 1011.5 |
| 20260506181336 | 51 | 317 | 4.0 | 8.0 | 0.00 | 1.50 | 0.28 | 88 | 1011.5 |
| 20260506180825 | 51 | 323 | 4.0 | 7.0 | 0.00 | 1.50 | 0.28 | 88 | 1011.4 |
| 20260506180341 | 51 | 315 | 3.0 | 5.0 | 0.00 | 1.50 | 0.28 | 88 | 1011.3 |
| 20260506175815 | 51 | 319 | 3.0 | 6.0 | 0.00 | 1.57 | 0.28 | 88 | 1011.3 |
| 20260506175332 | 51 | 349 | 4.0 | 6.0 | 0.00 | 1.57 | 0.28 | 87 | 1011.3 |
| 20260506174830 | 51 | 323 | 3.0 | 8.0 | 0.00 | 1.57 | 0.28 | 88 | 1011.2 |
| 20260506174349 | 51 | 329 | 5.0 | 8.0 | 0.00 | 1.57 | 0.28 | 88 | 1011.2 |
| 20260506173946 | 51 | 326 | 4.0 | 8.0 | 0.00 | 1.57 | 0.28 | 88 | 1011.1 |
| 20260506173330 | 51 | 331 | 4.0 | 8.0 | 0.00 | 1.57 | 0.28 | 88 | 1011.0 |
| 20260506172825 | 51 | 351 | 3.0 | 6.0 | 0.00 | 1.57 | 0.28 | 88 | 1011.0 |
| 20260506172322 | 51 | 342 | 3.0 | 9.0 | 0.00 | 1.57 | 0.28 | 88 | 1011.0 |
| 20260506171817 | 51 | 302 | 6.0 | 10.0 | 0.00 | 1.57 | 0.28 | 88 | 1010.9 |
| 20260506171314 | 51 | 346 | 5.0 | 8.0 | 0.00 | 1.57 | 0.28 | 88 | 1010.9 |
| 20260506170831 | 51 | 325 | 6.0 | 10.0 | 0.00 | 1.57 | 0.28 | 88 | 1010.9 |
| 20260506170328 | 51 | 329 | 6.0 | 10.0 | 0.00 | 1.57 | 0.28 | 88 | 1010.8 |
| 20260506165825 | 51 | 299 | 5.0 | 9.0 | 0.00 | 1.97 | 0.28 | 89 | 1010.8 |
| 20260506165322 | 51 | 327 | 4.0 | 10.0 | 0.00 | 1.97 | 0.28 | 88 | 1010.8 |
| 20260506164817 | 51 | 306 | 5.0 | 12.0 | 0.00 | 1.97 | 0.28 | 87 | 1010.8 |
| 20260506164314 | 52 | 320 | 10.0 | 12.0 | 0.00 | 1.97 | 0.28 | 87 | 1010.7 |
| 20260506163830 | 52 | 320 | 7.0 | 11.0 | 0.00 | 1.97 | 0.28 | 87 | 1010.7 |
| 20260506163330 | 52 | 327 | 7.0 | 11.0 | 0.00 | 1.97 | 0.28 | 87 | 1010.6 |
| 20260506162825 | 52 | 346 | 7.0 | 11.0 | 0.00 | 1.97 | 0.28 | 87 | 1010.6 |
| 20260506162322 | 51 | 9 | 7.0 | 12.0 | 0.00 | 1.97 | 0.28 | 87 | 1010.6 |
| 20260506161840 | 51 | 340 | 7.0 | 12.0 | 0.00 | 1.97 | 0.28 | 87 | 1010.6 |
| 20260506161339 | 51 | 302 | 8.0 | 12.0 | 0.00 | 1.97 | 0.28 | 87 | 1010.6 |
| 20260506160832 | 51 | 330 | 7.0 | 13.0 | 0.00 | 1.97 | 0.28 | 87 | 1010.6 |
| 20260506160332 | 51 | 325 | 10.0 | 13.0 | 0.00 | 1.97 | 0.28 | 86 | 1010.6 |
| 20260506155828 | 52 | 302 | 8.0 | 12.0 | 0.00 | 2.64 | 0.28 | 86 | 1010.6 |
| 20260506155327 | 52 | 306 | 7.0 | 14.0 | 0.00 | 2.64 | 0.28 | 86 | 1010.6 |
| 20260506154843 | 52 | 332 | 8.0 | 14.0 | 0.00 | 2.64 | 0.28 | 85 | 1010.5 |
| 20260506154341 | 52 | 313 | 6.0 | 13.0 | 0.00 | 2.64 | 0.28 | 85 | 1010.4 |
| 20260506153814 | 52 | 306 | 9.0 | 15.0 | 0.00 | 2.64 | 0.28 | 85 | 1010.5 |
| 20260506153331 | 52 | 311 | 10.0 | 15.0 | 0.00 | 2.64 | 0.28 | 84 | 1010.5 |
| 20260506152828 | 52 | 300 | 9.0 | 14.0 | 0.00 | 2.64 | 0.28 | 84 | 1010.5 |
| 20260506152325 | 52 | 309 | 8.0 | 15.0 | 0.00 | 2.64 | 0.28 | 85 | 1010.5 |
| 20260506151821 | 53 | 331 | 10.0 | 14.0 | 0.00 | 2.64 | 0.28 | 84 | 1010.5 |
| 20260506151321 | 53 | 350 | 10.0 | 13.0 | 0.00 | 2.64 | 0.28 | 84 | 1010.5 |
| 20260506150818 | 53 | 338 | 8.0 | 15.0 | 0.00 | 2.64 | 0.28 | 84 | 1010.4 |
| 20260506150334 | 53 | 294 | 11.0 | 15.0 | 0.00 | 2.64 | 0.28 | 85 | 1010.4 |
| 20260506145829 | 53 | 325 | 8.0 | 14.0 | 0.00 | 2.64 | 0.28 | 85 | 1010.4 |
| 20260506145327 | 52 | 312 | 10.0 | 14.0 | 0.00 | 2.64 | 0.28 | 86 | 1010.4 |
| 20260506144823 | 52 | 317 | 11.0 | 14.0 | 0.00 | 2.64 | 0.28 | 86 | 1010.4 |
| 20260506144321 | 52 | 321 | 8.0 | 15.0 | 0.00 | 2.64 | 0.28 | 86 | 1010.4 |
| 20260506143817 | 52 | 319 | 11.0 | 15.0 | 0.00 | 2.64 | 0.28 | 85 | 1010.4 |
| 20260506143316 | 52 | 355 | 9.0 | 16.0 | 0.00 | 2.64 | 0.28 | 85 | 1010.4 |
| 20260506142830 | 52 | 321 | 12.0 | 16.0 | 0.00 | 2.64 | 0.28 | 85 | 1010.4 |
| 20260506142349 | 52 | 346 | 8.0 | 15.0 | 0.00 | 2.64 | 0.28 | 85 | 1010.4 |
| 20260506141822 | 52 | 325 | 8.0 | 15.0 | 0.00 | 2.64 | 0.28 | 86 | 1010.4 |
| 20260506141320 | 52 | 355 | 11.0 | 15.0 | 0.00 | 2.64 | 0.28 | 86 | 1010.5 |
| 20260506140815 | 52 | 348 | 9.0 | 17.0 | 0.00 | 2.64 | 0.28 | 85 | 1010.4 |
| 20260506140314 | 53 | 347 | 12.0 | 17.0 | 0.00 | 2.64 | 0.28 | 84 | 1010.4 |
| 20260506135829 | 53 | 344 | 8.0 | 15.0 | 0.00 | 2.68 | 0.28 | 85 | 1010.3 |
| 20260506135325 | 53 | 334 | 11.0 | 14.0 | 0.00 | 2.68 | 0.28 | 85 | 1010.2 |
| 20260506134820 | 53 | 342 | 10.0 | 14.0 | 0.00 | 2.68 | 0.28 | 85 | 1010.3 |
| 20260506134319 | 53 | 355 | 10.0 | 13.0 | 0.00 | 2.68 | 0.28 | 86 | 1010.2 |
| 20260506133816 | 53 | 344 | 10.0 | 15.0 | 0.00 | 2.68 | 0.28 | 85 | 1010.3 |
| 20260506133332 | 53 | 9 | 7.0 | 15.0 | 0.00 | 2.68 | 0.28 | 86 | 1010.3 |
| 20260506132828 | 53 | 355 | 10.0 | 14.0 | 0.00 | 2.68 | 0.28 | 84 | 1010.3 |
| 20260506132324 | 53 | 9 | 9.0 | 12.0 | 0.00 | 2.68 | 0.28 | 85 | 1010.3 |
| 20260506131820 | 54 | 339 | 9.0 | 12.0 | 0.00 | 2.68 | 0.28 | 84 | 1010.3 |
| 20260506131338 | 54 | 344 | 9.0 | 13.0 | 0.00 | 2.68 | 0.28 | 84 | 1010.3 |
| 20260506130834 | 54 | 336 | 7.0 | 15.0 | 0.00 | 2.68 | 0.28 | 84 | 1010.2 |
| 20260506130332 | 54 | 340 | 8.0 | 15.0 | 0.00 | 2.68 | 0.28 | 84 | 1010.2 |
| 20260506125827 | 54 | 350 | 8.0 | 12.0 | 0.00 | 2.72 | 0.28 | 84 | 1010.2 |
| 20260506125324 | 53 | 343 | 7.0 | 13.0 | 0.00 | 2.72 | 0.28 | 84 | 1010.1 |
| 20260506124838 | 53 | 347 | 10.0 | 13.0 | 0.00 | 2.72 | 0.28 | 83 | 1010.1 |
| 20260506124351 | 53 | 355 | 9.0 | 13.0 | 0.00 | 2.72 | 0.28 | 84 | 1010.2 |
| 20260506123843 | 53 | 338 | 8.0 | 13.0 | 0.00 | 2.72 | 0.28 | 85 | 1010.1 |
| 20260506123320 | 53 | 338 | 6.0 | 13.0 | 0.00 | 2.72 | 0.28 | 86 | 1010.1 |
| 20260506122814 | 53 | 355 | 10.0 | 12.0 | 0.00 | 2.72 | 0.28 | 85 | 1010.1 |
| 20260506122338 | 52 | 343 | 8.0 | 12.0 | 0.00 | 2.72 | 0.28 | 86 | 1010.1 |
| 20260506121831 | 52 | 335 | 6.0 | 14.0 | 0.00 | 2.72 | 0.28 | 86 | 1010.0 |
| 20260506121330 | 52 | 325 | 9.0 | 15.0 | 0.00 | 2.72 | 0.28 | 86 | 1010.0 |
| 20260506120825 | 52 | 355 | 8.0 | 15.0 | 0.00 | 2.72 | 0.28 | 87 | 1010.0 |
| 20260506120342 | 51 | 355 | 8.0 | 13.0 | 0.00 | 2.72 | 0.28 | 87 | 1009.9 |
| 20260506115817 | 51 | 324 | 9.0 | 12.0 | 0.00 | 2.95 | 0.28 | 87 | 1009.9 |
| 20260506115335 | 51 | 309 | 8.0 | 16.0 | 0.00 | 2.95 | 0.28 | 87 | 1009.9 |
| 20260506114849 | 51 | 360 | 12.0 | 18.0 | 0.00 | 2.95 | 0.28 | 87 | 1009.9 |
| 20260506114327 | 51 | 338 | 12.0 | 15.0 | 0.00 | 2.95 | 0.28 | 87 | 1009.8 |
| 20260506113822 | 51 | 325 | 13.0 | 16.0 | 0.00 | 2.95 | 0.28 | 87 | 1009.7 |
| 20260506113322 | 51 | 319 | 11.0 | 16.0 | 0.00 | 2.95 | 0.28 | 86 | 1009.7 |
| 20260506112817 | 52 | 338 | 10.0 | 16.0 | 0.00 | 2.95 | 0.28 | 87 | 1009.6 |
| 20260506112314 | 52 | 336 | 12.0 | 16.0 | 0.00 | 2.95 | 0.28 | 87 | 1009.7 |
| 20260506111836 | 51 | 325 | 12.0 | 16.0 | 0.00 | 2.95 | 0.28 | 87 | 1009.6 |
| 20260506111354 | 52 | 319 | 9.0 | 15.0 | 0.00 | 2.95 | 0.28 | 87 | 1009.6 |
| 20260506110829 | 52 | 339 | 9.0 | 16.0 | 0.00 | 2.95 | 0.28 | 87 | 1009.5 |
| 20260506110328 | 51 | 342 | 12.0 | 16.0 | 0.00 | 2.95 | 0.28 | 87 | 1009.5 |
| 20260506105825 | 51 | 351 | 8.0 | 15.0 | 0.00 | 2.99 | 0.28 | 88 | 1009.6 |
| 20260506105323 | 51 | 343 | 9.0 | 15.0 | 0.00 | 2.99 | 0.28 | 88 | 1009.5 |
| 20260506104817 | 51 | 331 | 10.0 | 15.0 | 0.00 | 2.99 | 0.28 | 89 | 1009.5 |
| 20260506104314 | 50 | 351 | 11.0 | 15.0 | 0.00 | 2.99 | 0.28 | 89 | 1009.6 |
| 20260506103829 | 50 | 333 | 10.0 | 16.0 | 0.00 | 2.99 | 0.28 | 89 | 1009.5 |
| 20260506103328 | 51 | 351 | 11.0 | 18.0 | 0.00 | 2.99 | 0.28 | 89 | 1009.5 |
| 20260506102839 | 50 | 333 | 13.0 | 18.0 | 0.00 | 2.99 | 0.28 | 89 | 1009.6 |
| 20260506102316 | 50 | 330 | 11.0 | 18.0 | 0.00 | 2.99 | 0.28 | 89 | 1009.6 |
| 20260506101830 | 50 | 334 | 10.0 | 15.0 | 0.00 | 2.99 | 0.28 | 89 | 1009.5 |
| 20260506101328 | 50 | 313 | 9.0 | 15.0 | 0.00 | 2.99 | 0.28 | 89 | 1009.4 |
| 20260506100821 | 50 | 331 | 9.0 | 15.0 | 0.00 | 2.99 | 0.28 | 90 | 1009.4 |
| 20260506100322 | 50 | 28 | 9.0 | 15.0 | 0.00 | 2.99 | 0.28 | 90 | 1009.4 |
| 20260506095816 | 50 | 9 | 8.0 | 16.0 | 0.00 | 2.99 | 0.28 | 89 | 1009.2 |
| 20260506095314 | 50 | 328 | 12.0 | 18.0 | 0.00 | 2.99 | 0.28 | 90 | 1009.2 |
| 20260506094829 | 50 | 341 | 12.0 | 18.0 | 0.00 | 2.99 | 0.28 | 90 | 1009.2 |
| 20260506094326 | 50 | 323 | 10.0 | 16.0 | 0.00 | 2.99 | 0.28 | 90 | 1009.1 |
| 20260506093823 | 50 | 326 | 11.0 | 17.0 | 0.00 | 2.99 | 0.28 | 91 | 1009.1 |
| 20260506093320 | 50 | 332 | 13.0 | 17.0 | 0.00 | 2.99 | 0.28 | 91 | 1009.1 |
| 20260506092836 | 49 | 325 | 13.0 | 17.0 | 0.00 | 2.99 | 0.28 | 92 | 1009.1 |
| 20260506092332 | 49 | 329 | 12.0 | 16.0 | 0.00 | 2.99 | 0.28 | 92 | 1009.1 |
| 20260506091827 | 48 | 332 | 11.0 | 17.0 | 0.00 | 2.99 | 0.28 | 91 | 1009.1 |
| 20260506091345 | 48 | 329 | 11.0 | 17.0 | 0.00 | 2.99 | 0.28 | 91 | 1009.0 |
| 20260506090818 | 49 | 360 | 10.0 | 17.0 | 0.00 | 2.99 | 0.28 | 91 | 1009.0 |
| 20260506090315 | 48 | 316 | 9.0 | 16.0 | 0.00 | 2.99 | 0.28 | 92 | 1009.0 |
| 20260506085831 | 48 | 330 | 9.0 | 16.0 | 0.00 | 2.99 | 0.28 | 92 | 1009.0 |
| 20260506085330 | 48 | 318 | 10.0 | 15.0 | 0.00 | 2.99 | 0.28 | 92 | 1009.0 |
| 20260506084826 | 48 | 316 | 9.0 | 15.0 | 0.00 | 2.99 | 0.28 | 92 | 1009.0 |
| 20260506084323 | 48 | 355 | 9.0 | 15.0 | 0.00 | 2.99 | 0.28 | 92 | 1008.9 |
| 20260506083817 | 48 | 335 | 11.0 | 17.0 | 0.04 | 2.99 | 0.28 | 92 | 1008.9 |
| 20260506083314 | 48 | 325 | 11.0 | 17.0 | 0.04 | 2.99 | 0.28 | 92 | 1008.9 |
| 20260506082829 | 48 | 331 | 10.0 | 13.0 | 0.08 | 2.99 | 0.28 | 92 | 1008.8 |
| 20260506082326 | 48 | 313 | 8.0 | 12.0 | 0.08 | 2.99 | 0.28 | 92 | 1008.8 |
| 20260506081821 | 48 | 294 | 8.0 | 12.0 | 0.12 | 2.99 | 0.28 | 92 | 1008.8 |
| 20260506081317 | 48 | 336 | 6.0 | 12.0 | 0.16 | 2.99 | 0.28 | 93 | 1008.7 |
| 20260506080833 | 48 | 348 | 7.0 | 13.0 | 0.16 | 2.99 | 0.28 | 93 | 1008.7 |
| 20260506080332 | 48 | 325 | 7.0 | 12.0 | 0.20 | 2.99 | 0.28 | 93 | 1008.7 |
| 20260506073341 | 48 | 334 | 11.0 | 17.0 | 0.28 | 2.95 | 0.28 | 93 | 1008.5 |
| 20260506072814 | 49 | 313 | 6.0 | 14.0 | 0.28 | 2.91 | 0.27 | 93 | 1008.4 |
| 20260506072328 | 48 | 323 | 9.0 | 14.0 | 0.28 | 2.91 | 0.27 | 93 | 1008.4 |
| 20260506071824 | 48 | 338 | 9.0 | 13.0 | 0.28 | 2.87 | 0.26 | 93 | 1008.4 |
| 20260506071320 | 48 | 331 | 9.0 | 12.0 | 0.24 | 2.83 | 0.25 | 93 | 1008.4 |
| 20260506070835 | 48 | 341 | 9.0 | 12.0 | 0.24 | 2.83 | 0.25 | 93 | 1008.4 |
| 20260506070359 | 48 | 329 | 8.0 | 12.0 | 0.24 | 2.80 | 0.24 | 93 | 1008.4 |
| 20260506062328 | 50 | 336 | 5.0 | 10.0 | 0.08 | 2.64 | 0.21 | 93 | 1007.7 |
| 20260506061824 | 50 | 342 | 5.0 | 9.0 | 0.08 | 2.60 | 0.20 | 93 | 1007.7 |
| 20260506061323 | 50 | 348 | 5.0 | 11.0 | 0.08 | 2.60 | 0.20 | 93 | 1007.6 |
| 20260506060819 | 49 | 337 | 8.0 | 11.0 | 0.08 | 2.60 | 0.20 | 93 | 1007.6 |
| 20260506060317 | 49 | 22 | 6.0 | 10.0 | 0.04 | 2.56 | 0.20 | 93 | 1007.5 |
| 20260506051317 | 50 | 19 | 9.0 | 14.0 | 0.00 | 2.52 | 0.19 | 93 | 1007.0 |
| 20260506050832 | 50 | 342 | 7.0 | 14.0 | 0.00 | 2.52 | 0.19 | 93 | 1007.0 |
| 20260506050328 | 50 | 360 | 8.0 | 16.0 | 0.00 | 2.52 | 0.19 | 93 | 1006.9 |
| 20260506044830 | 50 | 11 | 10.0 | 15.0 | 0.00 | 2.52 | 0.19 | 93 | 1006.8 |
| 20260506044328 | 50 | 360 | 7.0 | 15.0 | 0.00 | 2.52 | 0.19 | 93 | 1006.8 |
| 20260506043822 | 50 | 335 | 8.0 | 15.0 | 0.00 | 2.52 | 0.19 | 93 | 1006.7 |
| 20260506043320 | 50 | 360 | 6.0 | 12.0 | 0.00 | 2.52 | 0.19 | 93 | 1006.8 |
| 20260506042816 | 50 | 20 | 7.0 | 12.0 | 0.00 | 2.52 | 0.19 | 93 | 1006.7 |
| 20260506042332 | 50 | 339 | 7.0 | 13.0 | 0.00 | 2.52 | 0.19 | 93 | 1006.7 |
| 20260506041829 | 50 | 355 | 9.0 | 14.0 | 0.00 | 2.52 | 0.19 | 93 | 1006.7 |
| 20260506041327 | 50 | 360 | 10.0 | 14.0 | 0.00 | 2.52 | 0.19 | 93 | 1006.6 |
| 20260506040822 | 50 | 335 | 9.0 | 14.0 | 0.00 | 2.52 | 0.19 | 93 | 1006.6 |
| 20260506040340 | 50 | 346 | 10.0 | 14.0 | 0.00 | 2.52 | 0.19 | 93 | 1006.7 |
| 20260506035814 | 50 | 349 | 8.0 | 12.0 | 0.00 | 2.52 | 0.19 | 93 | 1006.8 |
| 20260506035400 | 50 | 344 | 7.0 | 11.0 | 0.00 | 2.52 | 0.19 | 93 | 1006.8 |
| 20260506034834 | 50 | 339 | 6.0 | 13.0 | 0.00 | 2.52 | 0.19 | 93 | 1006.8 |
| 20260506034332 | 50 | 332 | 9.0 | 13.0 | 0.00 | 2.52 | 0.19 | 93 | 1006.8 |
| 20260506033828 | 50 | 318 | 6.0 | 11.0 | 0.00 | 2.52 | 0.19 | 93 | 1006.8 |
| 20260506033326 | 51 | 312 | 6.0 | 11.0 | 0.00 | 2.52 | 0.19 | 93 | 1006.8 |
| 20260506032822 | 51 | 324 | 4.0 | 9.0 | 0.04 | 2.52 | 0.19 | 93 | 1006.8 |
| 20260506032338 | 51 | 319 | 5.0 | 9.0 | 0.04 | 2.52 | 0.19 | 93 | 1006.8 |
| 20260506031854 | 51 | 305 | 4.0 | 9.0 | 0.08 | 2.52 | 0.19 | 93 | 1006.7 |
| 20260506031330 | 51 | 340 | 6.0 | 10.0 | 0.16 | 2.52 | 0.19 | 93 | 1006.7 |
| 20260506030833 | 51 | 329 | 6.0 | 11.0 | 0.28 | 2.52 | 0.19 | 94 | 1006.7 |
| 20260506030331 | 51 | 342 | 7.0 | 11.0 | 0.39 | 2.52 | 0.19 | 93 | 1006.8 |
| 20260506025826 | 51 | 325 | 5.0 | 9.0 | 0.51 | 2.52 | 0.19 | 94 | 1006.8 |
| 20260506025323 | 51 | 325 | 3.0 | 8.0 | 0.63 | 2.52 | 0.19 | 94 | 1006.8 |
| 20260506024818 | 51 | 321 | 4.0 | 9.0 | 0.79 | 2.52 | 0.19 | 94 | 1006.8 |
| 20260506024316 | 51 | 317 | 4.0 | 9.0 | 0.79 | 2.52 | 0.19 | 94 | 1006.7 |
| 20260506023830 | 51 | 331 | 6.0 | 9.0 | 0.79 | 2.52 | 0.19 | 93 | 1006.8 |
| 20260506023314 | 51 | 329 | 4.0 | 8.0 | 0.83 | 2.52 | 0.19 | 94 | 1006.8 |
| 20260506022827 | 51 | 317 | 4.0 | 9.0 | 0.79 | 2.48 | 0.18 | 94 | 1006.8 |
| 20260506022324 | 51 | 349 | 5.0 | 9.0 | 0.83 | 2.48 | 0.18 | 94 | 1006.8 |
| 20260506021821 | 51 | 342 | 7.0 | 12.0 | 0.79 | 2.44 | 0.17 | 93 | 1006.7 |
| 20260506021320 | 51 | 350 | 9.0 | 13.0 | 0.71 | 2.32 | 0.15 | 93 | 1006.6 |
| 20260506020815 | 51 | 351 | 10.0 | 13.0 | 0.59 | 2.20 | 0.13 | 93 | 1006.5 |
| 20260506020332 | 51 | 19 | 9.0 | 13.0 | 0.51 | 2.13 | 0.11 | 93 | 1006.6 |
| 20260506015827 | 51 | 325 | 9.0 | 12.0 | 0.39 | 2.01 | 0.09 | 93 | 1006.6 |
| 20260506015323 | 52 | 325 | 6.0 | 9.0 | 0.28 | 1.85 | 0.06 | 93 | 1006.7 |
| 20260506014817 | 52 | 317 | 3.0 | 9.0 | 0.16 | 1.73 | 0.03 | 93 | 1006.7 |
| 20260506014334 | 52 | 331 | 7.0 | 9.0 | 0.16 | 1.73 | 0.03 | 93 | 1006.7 |
| 20260506013828 | 52 | 321 | 5.0 | 10.0 | 0.16 | 1.73 | 0.03 | 93 | 1006.7 |
| 20260506013327 | 52 | 346 | 6.0 | 11.0 | 0.12 | 1.69 | 0.02 | 94 | 1006.6 |
| 20260506012821 | 52 | 348 | 7.0 | 11.0 | 0.08 | 1.65 | 0.02 | 94 | 1006.5 |
| 20260506012341 | 52 | 340 | 7.0 | 11.0 | 0.08 | 1.65 | 0.02 | 94 | 1006.5 |
| 20260506011838 | 52 | 331 | 7.0 | 11.0 | 0.08 | 1.65 | 0.02 | 94 | 1006.5 |
| 20260506011314 | 52 | 23 | 6.0 | 12.0 | 0.04 | 1.61 | 0.01 | 94 | 1006.5 |